This is the latest recevied weather packets stored in our database for station/object KF0PEC-15. If no packets are shown the sender has not sent any weather packets the latest 10 day(s).
| Time | Temp. | Humidity | Pressure | Rain* | Wind** | Luminosity | Snow |
|---|---|---|---|---|---|---|---|
| 1777164809 | 13.89° C | 34% | 1006.4 hPa | 0 mm | - | 249 W/m² | - |
| 1777164249 | 13.89° C | 34% | 1006.2 hPa | 0 mm | - | 350 W/m² | - |
| 1777163760 | 13.89° C | 34% | 1006.2 hPa | 0 mm | - | 289 W/m² | - |
| 1777163270 | 13.89° C | 34% | 1006 hPa | 0 mm | - | 319 W/m² | - |
| 1777162690 | 13.89° C | 33% | 1005.8 hPa | 0 mm | - | 434 W/m² | - |
| 1777162200 | 14.44° C | 33% | 1005.7 hPa | 0 mm | - | 478 W/m² | - |
| 1777161705 | 14.44° C | 33% | 1005.8 hPa | 0 mm | - | 571 W/m² | - |
| 1777161165 | 14.44° C | 33% | 1005.6 hPa | 0 mm | - | 621 W/m² | - |
| 1777160580 | 14.44° C | 32% | 1005.3 hPa | 0 mm | - | 625 W/m² | - |
| 1777159989 | 15° C | 32% | 1005 hPa | 0 mm | - | 813 W/m² | - |
| 1777159500 | 15° C | 32% | 1004.4 hPa | 0 mm | - | 110 W/m² | - |
| 1777158980 | 15.56° C | 31% | 1004.3 hPa | 0 mm | - | 133 W/m² | - |
| 1777158489 | 15° C | 31% | 1004.2 hPa | 0 mm | - | 155 W/m² | - |
| 1777157985 | 15.56° C | 31% | 1003.9 hPa | 0 mm | - | 150 W/m² | - |
| 1777157400 | 15.56° C | 31% | 1003.8 hPa | 0 mm | - | 183 W/m² | - |
| 1777156829 | 15° C | 31% | 1003.9 hPa | 0 mm | - | 173 W/m² | - |
| 1777156260 | 15.56° C | 31% | 1003.9 hPa | 0 mm | - | 175 W/m² | - |
| 1777155775 | 15.56° C | 31% | 1003.7 hPa | 0 mm | - | 181 W/m² | - |
| 1777155205 | 15.56° C | 31% | 1004 hPa | 0 mm | - | 336 W/m² | - |
| 1777154685 | 15.56° C | 32% | 1004 hPa | 0 mm | - | 149 W/m² | - |
| 1777154125 | 15.56° C | 33% | 1004.1 hPa | 0 mm | - | 246 W/m² | - |
| 1777153565 | 15.56° C | 32% | 1004.1 hPa | 0 mm | - | 254 W/m² | - |
| 1777153049 | 15° C | 33% | 1004.3 hPa | 0 mm | - | 188 W/m² | - |
| 1777152495 | 15° C | 33% | 1004.6 hPa | 0 mm | - | 176 W/m² | - |
| 1777151900 | 15° C | 33% | 1004.6 hPa | 0 mm | - | 316 W/m² | - |
* Rain latest hour (hover to see other rain measurements)
** Current wind speed in m/s (hover to see current wind gust speed)